sat.trackr.live / text

‹ back to catalog

STARLINK-37514

NORAD 68899 · 2026-097E

PAYLOAD ACTIVE UNKNOWN

§ Identity

Operator
Country
US
Launch date
2026-04-30
Launch site
AFWTR
Launch vehicle
Mass (kg)
RCS (m²)

Purposes: comms

External: N2YO · Heavens-Above · Gunter

§ Orbital elements

Epoch: 2026-05-25T02:31:17.670432Z

Period
93.16 min
Inclination
97.2848°
Eccentricity
0.0005798
Mean motion
15.45738210 rev/d
Perigee alt
425.3 km
Apogee alt
433.2 km
Semi-major
6,807.3 km
B*
-6.9877e-3
RAAN
340.8729°
Arg perigee
85.6971°
Mean anomaly
274.4940°
Rev number
394

§ Raw data

STARLINK-375141 68899U 26097E   26145.10506563 -.00324139  00000+0 -69877-2 0  99902 68899  97.2848 340.8729 0005798  85.6971 274.4940 15.45738210  3940

JSON: /api/v1/satellites/68899 · /tle

For live sub-satellite position, see the globe view (requires WebGL).

§ Visibility from observer

Set your observer location to see the next 7 days of passes ≥ 10°. The values pass through the URL so the page stays shareable.

No JS? Fill the form by hand. The geolocation button needs JavaScript.